Change the Weather History Date:

Saturday, February 16, 2013

  Actual Average Record
Temperature  
Mean Temperature 35 °F 46 °F  
Max Temperature 41 °F 55 °F 79 °F (1911)
Min Temperature 28 °F 37 °F 8 °F (1958)
Degree Days  
Heating Degree Days 30 19  
Month to date heating degree days 296 338  
Since 1 July heating degree days 1947 2240  
Cooling Degree Days 0 0  
Month to date cooling degree days 0 0  
Year to date cooling degree days 9 1  
Moisture  
Dew Point 19 °F    
Average Humidity 55    
Maximum Humidity 69    
Minimum Humidity 40    
Precipitation  
Precipitation 0.00 in 0.16 in 2.92 in (1954)
Month to date precipitation 1.28 2.46  
Year to date precipitation 11.00 6.44  
Snow  
Snow 0.00 in 0.10 in 4.00 in (1903)
Month to date snowfall 0.0 0.9  
Since 1 July snowfall 0.9 3.0  
Snow Depth 0.00 in    
Sea Level Pressure  
Sea Level Pressure 30.25 in    
Wind  
Wind Speed 8 mph (NW)    
Max Wind Speed 17 mph    
Max Gust Speed 25 mph    
Visibility 10 miles    
Events      
T = Trace of Precipitation, MM = Missing Value Source: NWS Daily Summary

Daily Weather History Graph

Daily Weather History Graph

Search for Another Location

Airport or City:

Trip Planner

Search our weather history database for the weather conditions in past years. The results will help you decide how hot, cold, wet, or windy it might be!

Date:

Astronomy

Feb. 16, 2013 Rise Set
Actual Time 6:44 AM CST 5:43 PM CST
Civil Twilight 6:18 AM CST 6:09 PM CST
Nautical Twilight 5:49 AM CST 6:39 PM CST
Astronomical Twilight 5:19 AM CST 7:08 PM CST
Moon 10:14 AM CST (2/16) No Moon Set
Length of Visible Light 11h 50m
Length of Day
10h 59m
Waxing Crescent, 39% of the Moon is Illuminated
Feb 16
Waxing Crescent
Feb 17
First Quarter
Feb 25
Full
Mar 4
Last Quarter
Mar 11
New

Hourly Weather History & Observations

Time (CST) Temp. Windchill Dew Point Humidity Pressure Visibility Wind Dir Wind Speed Gust Speed Precip Events Conditions
12:54 AM 39.0 °F 33.4 °F 23.0 °F 53% 30.21 in 10.0 mi North 8.1 mph - N/A   Mostly Cloudy
1:54 AM 37.0 °F 31.0 °F 19.0 °F 48% 30.21 in 10.0 mi North 8.1 mph - N/A   Scattered Clouds
2:54 AM 36.0 °F 31.1 °F 19.9 °F 52% 30.21 in 10.0 mi NW 5.8 mph - N/A   Scattered Clouds
3:54 AM 33.1 °F 26.1 °F 23.0 °F 66% 30.21 in 10.0 mi NW 8.1 mph - N/A   Partly Cloudy
4:54 AM 30.2 °F 22.6 °F 21.2 °F 69% 30.22 in 10.0 mi WNW 8.1 mph - N/A   Clear
5:54 AM 30.0 °F 23.2 °F 18.0 °F 61% 30.23 in 10.0 mi NW 6.9 mph - N/A   Partly Cloudy
6:54 AM 28.9 °F 22.8 °F 18.0 °F 64% 30.24 in 10.0 mi NNW 5.8 mph - N/A   Scattered Clouds
7:54 AM 34.0 °F 26.6 °F 18.0 °F 52% 30.25 in 10.0 mi North 9.2 mph - N/A   Mostly Cloudy
8:54 AM 35.1 °F 28.6 °F 17.1 °F 48% 30.25 in 10.0 mi NNW 8.1 mph - N/A   Mostly Cloudy
9:54 AM 36.0 °F 27.5 °F 19.9 °F 52% 30.27 in 10.0 mi NW 12.7 mph - N/A   Mostly Cloudy
10:54 AM 37.0 °F 28.9 °F 19.0 °F 48% 30.29 in 10.0 mi NNW 12.7 mph 17.3 mph N/A   Mostly Cloudy
11:54 AM 37.9 °F 30.9 °F 21.0 °F 51% 30.28 in 10.0 mi North 10.4 mph - N/A   Mostly Cloudy
12:29 PM 37.4 °F 28.2 °F 21.2 °F 52% 30.27 in 10.0 mi NW 16.1 mph 24.2 mph N/A   Mostly Cloudy
12:54 PM 37.0 °F 28.9 °F 19.9 °F 50% 30.27 in 10.0 mi NNW 12.7 mph 25.3 mph N/A   Mostly Cloudy
1:37 PM 37.4 °F 29.8 °F 19.4 °F 48% 30.25 in 10.0 mi NW 11.5 mph 18.4 mph N/A   Mostly Cloudy
1:54 PM 37.9 °F 29.6 °F 21.0 °F 51% 30.25 in 10.0 mi WNW 13.8 mph - N/A   Mostly Cloudy
2:54 PM 39.9 °F 32.9 °F 19.0 °F 43% 30.25 in 10.0 mi NNW 11.5 mph 17.3 mph N/A   Scattered Clouds
3:54 PM 39.9 °F 32.5 °F 18.0 °F 41% 30.25 in 10.0 mi NW 12.7 mph 18.4 mph N/A   Scattered Clouds
4:54 PM 37.0 °F 29.8 °F 17.1 °F 44% 30.25 in 10.0 mi WNW 10.4 mph 17.3 mph N/A   Scattered Clouds
5:54 PM 35.1 °F 28.6 °F 16.0 °F 46% 30.26 in 10.0 mi NW 8.1 mph - N/A   Scattered Clouds
6:54 PM 35.1 °F - 15.1 °F 44% 30.27 in 10.0 mi Calm Calm - N/A   Partly Cloudy
7:54 PM 32.0 °F 28.7 °F 18.0 °F 56% 30.26 in 10.0 mi South 3.5 mph - N/A   Partly Cloudy
8:54 PM 30.0 °F 23.2 °F 17.1 °F 59% 30.26 in 10.0 mi South 6.9 mph - N/A   Partly Cloudy
9:54 PM 30.9 °F 26.2 °F 19.0 °F 61% 30.26 in 10.0 mi SSW 4.6 mph - N/A   Mostly Cloudy
10:54 PM 32.0 °F 26.4 °F 19.0 °F 59% 30.26 in 10.0 mi South 5.8 mph - N/A   Overcast
11:54 PM 32.0 °F 26.4 °F 18.0 °F 56% 30.26 in 10.0 mi SSW 5.8 mph - N/A   Overcast